loading
DOY 175 | 2024-06-23T10:19:33Z

THOR ABLESTAR DEB, 244

Orbit data source: Space-Track

THOR ABLESTAR DEB, 244 is space debris in LEO originally from a launch on Thu, 29 Jun 1961 UTC launched from the Air Force Eastern Test Range (AFETR). Debris objects in space refer to the collection of defunct objects orbiting the Earth. Examples of debris include non-operational satellites, rocket bodies, and fragments generated from explosions, collisions, or faulty payload assembly.

Loading next visibility...
Loading greatness...
THOR ABLESTAR DEB details
NORAD ID244
COSPAR ID
1961-015BZ
Orbit
LEO
Last TLE update6 hours ago
Origin
Flag of USUSAF SSD (US)
ManufacturerUnknown
BusUnknown
MotorUnknown
MassWet unknown, Dry mass unknown
Launch date (UTC)
1961-06-29 (63 years ago)
Launch vehicleUnknown
Launch site
Air Force Eastern Test Range (AFETR)
Object type
Payload
Rocket body
Debris
Radar Cross SectionSmall (<0.1 m²)
Predictive object data (real-time)
Latitude12.97342°
Longitude44.69619°
Altitude897.644 km
Speed7.412 km/s
Apparent Right ascension04h 17m 37s
Apparent Declination-21° 13' 16"
Sunlit
Object is in daylight
Predictive observer data (real-time)
Local Sidereal Time21:27:24
Azimuth99.214° ESE
Elevation-22.81°
Doppler factor1
Orbital elements
Apogee964.416 km
Perigee853.169 km
Semi-major axis7,286.93 km
Eccentricity0.0076333
Inclination66.8397°
RAAN208.2404°
Arg. of periapsis241.7678°
True anomaly118.34016°
Mean anomaly117.5682°
Mean motion3.4892 °/min
BSTAR0.00016008
Period103.18 mins
Definitive object data (Epoch: 2024-06-23T04:21:53.747Z)
Latitude-0.00007°
Longitude-129.06811°
Altitude938.574 km
Speed7.37 km/s
True Right ascension13h 52m 57s
True Declination0° 00' 00"
Sunlit
Object was in daylight at TLE epoch
TLE from 6 hours ago
0 THOR ABLESTAR DEB
1   244U 61015BZ  24175.18187208  .00000144  00000-0  16008-3 0  9994
2   244  66.8397 208.2404 0076333 241.7678 117.5682 13.95216342198563
Epoch: 2024-06-23T04:21Z
No data available

THOR ABLESTAR DEB Visibility forecast

Observer location: 39.9160978°, -105.1181434, 0m alt.

THOR ABLESTAR DEB is not visible in the next 10 days
Span
Click to sort rows by Start time (UTC) header in descending order
Start Az.
Max El. time (UTC)
Max El. Az.
Max El.
End time (UTC)
End Az.